This demonstration page uses our WeatherBlox Daily Observations layout. Learn more.

39.01783, -85.05884

Hourly Observations for August 23, 2019

Temp ( °F °C ) Dew Point ( °F °C ) Humidity (%) Winds ( mph kmh ) Pressure ( in mb ) Visibility ( mi km ) Precip ( " mm )
12:52 am 00:52 Cloudy 74 23.3 68 20 82 82 N 5 7 29.97 1015 10 16.09344 0.001 0.001
1:36 am 01:36 Cloudy 74 23.3 68 20 82 82 NNE 6 9 29.97 1015 10 16.09344 0 0
1:52 am 01:52 Cloudy with Light Rain 74 23.3 68 20 82 82 NE 7 11 29.97 1015 10 16.09344 0.001 0.001
2:20 am 02:20 Cloudy with Light Rain 73 22.8 69 20.6 87 87 N 6 9 29.97 1015 10 16.09344 0.001 0.001
2:41 am 02:41 Cloudy with Rain 73 22.8 68 20 84 84 NNE 9 15 29.97 1015 5 8.04672 0.01 0.254
2:52 am 02:52 Cloudy with Heavy Rain 72 22.2 68 20 87 87 VRB 3 6 29.97 1015 3 4.828032 0.04 1.016
3:12 am 03:12 Cloudy with Light Rain 72 22.2 68 20 87 87 NNE 10 17 29.97 1015 7 11.265408 0.04 1.016
3:28 am 03:28 Cloudy with Light Rain 71 21.7 68 20 90 90 NNE 9 15 29.97 1015 5 8.04672 0.05 1.27
3:45 am 03:45 Cloudy with Light Rain 71 21.7 68 20 90 90 NNE 12 19 29.97 1015 5 8.04672 0.06 1.524
3:52 am 03:52 Cloudy with Light Rain 71 21.7 68 20 90 90 NNE 14 22 29.97 1015 6 9.656064 0.07 1.778
4:52 am 04:52 Cloudy with Light Rain 70 21.1 66 18.9 87 87 NNE 16 26 29.97 1015 10 16.09344 0.001 0.001
5:12 am 05:12 Cloudy with Light Rain 69 20.6 66 18.9 90 90 NNE 14 22 30 1016 5 8.04672 0.001 0.001
5:45 am 05:45 Cloudy with Light Rain 69 20.6 65 18.3 87 87 NNE 13 20 30 1016 10 16.09344 0.001 0.001
5:52 am 05:52 Cloudy with Light Rain 68 20 65 18.3 90 90 NNE 13 20 29.97 1015 9 14.484096 0.001 0.001
6:06 am 06:06 Cloudy with Light Rain 68 20 65 18.3 90 90 ENE 14 22 30 1016 6 9.656064 0.01 0.254
6:30 am 06:30 Cloudy with Rain 67 19.4 63 17.2 87 87 NE 15 24 30 1016 7 11.265408 0.03 0.762
6:52 am 06:52 Cloudy 67 19.4 62 16.7 84 84 NE 13 20 30 1016 10 16.09344 0.04 1.016
7:52 am 07:52 Cloudy with Light Rain 66 18.9 63 17.2 90 90 NE 10 17 30.03 1017 9 14.484096 0.001 0.001
7:58 am 07:58 Cloudy 66 18.9 63 17.2 90 90 NE 10 17 30.06 1018 10 16.09344 0.001 0.001
8:52 am 08:52 Cloudy 66 18.9 61 16.1 84 84 ENE 12 19 30.06 1018 10 16.09344 0.001 0.001
9:52 am 09:52 Cloudy 68 20 60 15.6 76 76 ENE 15 24 30.06 1018 10 16.09344 0 0
10:52 am 10:52 Cloudy 69 20.6 61 16.1 76 76 E 12 19 30.09 1019 10 16.09344 0 0
11:52 am 11:52 Cloudy 71 21.7 60 15.6 68 68 ENE 12 19 30.09 1019 10 16.09344 0 0
12:52 pm 12:52 Cloudy 73 22.8 59 15 62 62 ENE 14 22 30.09 1019 10 16.09344 0 0
1:52 pm 13:52 Mostly Cloudy 73 22.8 58 14.4 59 59 ENE 10 17 30.09 1019 10 16.09344 0 0
2:52 pm 14:52 Mostly Cloudy 73 22.8 58 14.4 59 59 ENE 8 13 30.09 1019 10 16.09344 0 0
3:52 pm 15:52 Mostly Cloudy 74 23.3 59 15 60 60 E 9 15 30.06 1018 10 16.09344 0 0
4:52 pm 16:52 Mostly Cloudy 75 23.9 54 12.2 48 48 NE 15 24 30.06 1018 10 16.09344 0 0
5:52 pm 17:52 Mostly Cloudy 75 23.9 54 12.2 48 48 NE 10 17 30.06 1018 10 16.09344 0 0
6:52 pm 18:52 Mostly Cloudy 73 22.8 56 13.3 55 55 ENE 7 11 30.06 1018 10 16.09344 0 0
7:52 pm 19:52 Mostly Cloudy 73 22.8 55 12.8 53 53 ENE 10 17 30.09 1019 10 16.09344 0 0
8:52 pm 20:52 Mostly Cloudy 68 20 55 12.8 63 63 E 9 15 30.09 1019 10 16.09344 0 0
9:52 pm 21:52 Mostly Clear 68 20 53 11.7 59 59 ENE 9 15 30.12 1020 10 16.09344 0 0
10:52 pm 22:52 Mostly Clear 68 20 53 11.7 59 59 NE 10 17 30.12 1020 10 16.09344 0 0
11:52 pm 23:52 Clear 67 19.4 52 11.1 59 59 NE 12 19 30.15 1021 10 16.09344 0 0

Powered by AerisWeather